This is the latest recevied weather packets stored in our database for station/object JE7UPL-13. If no packets are shown the sender has not sent any weather packets the latest 10 day(s).
| Time | Temp. | Humidity | Pressure | Rain* | Wind** | Luminosity | Snow |
|---|---|---|---|---|---|---|---|
| 1778017505 | 19.44° C | 23% | 1014.7 hPa | 0 mm | - | - | - |
| 1778016606 | 18.89° C | 24% | 1014.8 hPa | 0 mm | - | - | - |
| 1778015705 | 18.33° C | 24% | 1014.4 hPa | 0 mm | - | - | - |
| 1778014805 | 18.33° C | 23% | 1014.7 hPa | 0 mm | - | - | - |
| 1778013905 | 17.78° C | 22% | 1014.5 hPa | 0 mm | - | - | - |
| 1778013005 | 17.78° C | 22% | 1014.5 hPa | 0 mm | - | - | - |
| 1778012105 | 17.22° C | 21% | 1014.2 hPa | 0 mm | - | - | - |
| 1778011206 | 16.11° C | 23% | 1014 hPa | 0 mm | - | - | - |
| 1778010305 | 16.11° C | 22% | 1014 hPa | 0 mm | - | - | - |
| 1778009405 | 16.11° C | 22% | 1013.8 hPa | 0 mm | - | - | - |
| 1778008505 | 16.11° C | 21% | 1013.7 hPa | 0 mm | - | - | - |
| 1778007605 | 16.11° C | 22% | 1013.5 hPa | 0 mm | - | - | - |
| 1778006704 | 15.56° C | 22% | 1013.6 hPa | 0 mm | - | - | - |
| 1778005805 | 15.56° C | 22% | 1013.2 hPa | 0 mm | - | - | - |
| 1778004905 | 15.56° C | 22% | 1013.4 hPa | 0 mm | - | - | - |
| 1778004005 | 15.56° C | 23% | 1013.2 hPa | 0 mm | - | - | - |
| 1778003105 | 15.56° C | 23% | 1013.2 hPa | 0 mm | - | - | - |
| 1778002205 | 15° C | 23% | 1013.2 hPa | 0 mm | - | - | - |
| 1778001305 | 15° C | 23% | 1013.2 hPa | 0 mm | - | - | - |
| 1778000405 | 15° C | 24% | 1013.3 hPa | 0 mm | - | - | - |
| 1777999505 | 15° C | 24% | 1013.5 hPa | 0 mm | - | - | - |
| 1777998605 | 15° C | 24% | 1013.6 hPa | 0 mm | - | - | - |
| 1777997705 | 15° C | 24% | 1013.7 hPa | 0 mm | - | - | - |
| 1777996805 | 15° C | 24% | 1013.7 hPa | 0 mm | - | - | - |
| 1777995906 | 15° C | 27% | 1013.5 hPa | 0 mm | - | - | - |
* Rain latest hour (hover to see other rain measurements)
** Current wind speed in m/s (hover to see current wind gust speed)